^^
Saratoga-Weather Station Historical Data
Daily Summary for September 29, 2020 Units:  Metric    English   Both
Daily Weekly Monthly Yearly Custom
  High: Low: Average:
Temperature: 4.6 °C 1.4 °C 2.9 °C
Dew Point: 3.1 °C 0.8 °C 2.1 °C
Humidity: 97% 90% 94%
Wind Speed: 16.3km/h 0km/h 2.7km/h
Wind Gust: 19.3km/h - -
Wind- - West
Pressure: 996.6 hPa 977.0 hPa -
Precipitation: 4.8 mm    
Historical Graphs
 
 
Tabular Data for September 29, 2020
Time Temperature Dew Point Pressure Wind Wind Speed Wind Gust Humidity Rainfall Rate (Hourly) solar
00:04 1.4 °C 0.8 °C 977.0 hPa Calm   3.2 km/h 96% 0.5 mm 0 W/m2
00:09 1.4 °C 0.8 °C 977.0 hPa Calm     96% 0.5 mm 0 W/m2
00:14 1.5 °C 1.1 °C 977.0 hPa Calm   1.6 km/h 97% 0.5 mm 0 W/m2
00:19 1.6 °C 1.2 °C 977.0 hPa Calm     97% 0.5 mm 0 W/m2
00:24 1.6 °C 1.2 °C 977.0 hPa Calm     97% 0.5 mm 0 W/m2
00:29 1.6 °C 1.2 °C 977.0 hPa Calm     97% 0.5 mm 0 W/m2
00:34 1.6 °C 1.2 °C 977.0 hPa Calm     97% 0.2 mm 0 W/m2
00:39 1.7 °C 1.3 °C 977.0 hPa Calm   3.2 km/h 97% 0.2 mm 0 W/m2
00:44 1.8 °C 1.4 °C 977.0 hPa Calm     97% 0.2 mm 0 W/m2
00:49 1.9 °C 1.5 °C 977.0 hPa Calm   3.2 km/h 97% 0.2 mm 0 W/m2
00:54 1.9 °C 1.5 °C 977.0 hPa Calm   1.6 km/h 97% 0.5 mm 0 W/m2
00:59 2.2 °C 1.8 °C 977.0 hPa NW 3.2 km/h 6.4 km/h 97% 0.5 mm 0 W/m2
01:04 2.3 °C 1.9 °C 977.0 hPa WNW 11.1 km/h 11.3 km/h 97% 0.5 mm 0 W/m2
01:09 2.3 °C 1.9 °C 977.3 hPa NNW 1.4 km/h 4.8 km/h 97% 0.5 mm 0 W/m2
01:14 2.3 °C 1.9 °C 977.3 hPa North 11.3 km/h 11.3 km/h 97% 0.2 mm 0 W/m2
01:19 2.3 °C 1.9 °C 977.3 hPa WNW 3.2 km/h 6.4 km/h 97% 0.5 mm 0 W/m2
01:24 2.3 °C 1.9 °C 977.3 hPa NNE 1.4 km/h 1.6 km/h 97% 0.5 mm 0 W/m2
01:29 2.3 °C 1.9 °C 977.3 hPa NE 3.2 km/h 6.4 km/h 97% 0.5 mm 0 W/m2
01:34 2.3 °C 1.7 °C 977.3 hPa Calm   3.2 km/h 96% 0.5 mm 0 W/m2
01:39 2.3 °C 1.7 °C 977.6 hPa Calm   3.2 km/h 96% 0.5 mm 0 W/m2
01:44 2.3 °C 1.7 °C 977.6 hPa NW 1.4 km/h 12.9 km/h 96% 0.5 mm 0 W/m2
01:49 2.3 °C 1.7 °C 977.6 hPa WNW 7.9 km/h 8 km/h 96% 0.5 mm 0 W/m2
01:54 2.2 °C 1.6 °C 977.6 hPa NW 1.4 km/h 9.7 km/h 96% 0.2 mm 0 W/m2
01:59 2.2 °C 1.6 °C 977.6 hPa WSW 3.2 km/h 6.4 km/h 96% 0.2 mm 0 W/m2
02:04 2.2 °C 1.5 °C 977.6 hPa WSW 3.2 km/h 6.4 km/h 95% 0.2 mm 0 W/m2
02:09 2.2 °C 1.5 °C 977.6 hPa NW 4.7 km/h 6.4 km/h 95% 0.2 mm 0 W/m2
02:14 2.2 °C 1.5 °C 978.0 hPa WNW 3.2 km/h 6.4 km/h 95% 0.2 mm 0 W/m2
02:19 2.1 °C 1.4 °C 978.0 hPa Calm   4.8 km/h 95% 0.0 mm 0 W/m2
02:24 2.1 °C 1.4 °C 978.0 hPa WSW 1.4 km/h 3.2 km/h 95% 0.0 mm 0 W/m2
02:29 2.1 °C 1.4 °C 978.3 hPa Calm   1.6 km/h 95% 0.0 mm 0 W/m2
02:34 2.1 °C 1.4 °C 978.3 hPa West 1.4 km/h 6.4 km/h 95% 0.0 mm 0 W/m2
02:39 2.1 °C 1.4 °C 978.7 hPa Calm   4.8 km/h 95% 0.2 mm 0 W/m2
02:44 2 °C 1.3 °C 978.7 hPa West 4.7 km/h 11.3 km/h 95% 0.2 mm 0 W/m2
02:49 2 °C 1.3 °C 978.7 hPa WNW 7.9 km/h 11.3 km/h 95% 0.2 mm 0 W/m2
02:54 2 °C 1.3 °C 978.7 hPa WNW 1.4 km/h 4.8 km/h 95% 0.2 mm 0 W/m2
02:59 1.9 °C 1.2 °C 979.0 hPa West 6.4 km/h 11.3 km/h 95% 0.2 mm 0 W/m2
03:04 1.9 °C 1.2 °C 979.0 hPa WNW 1.4 km/h 14.5 km/h 95% 0.2 mm 0 W/m2
03:09 1.9 °C 1.2 °C 979.3 hPa NW 6.4 km/h 11.3 km/h 95% 0.2 mm 0 W/m2
03:14 1.9 °C 1.2 °C 979.3 hPa SW 3.2 km/h 14.5 km/h 95% 0.2 mm 0 W/m2
03:19 1.9 °C 1.2 °C 979.3 hPa WNW 3.2 km/h 14.5 km/h 95% 0.2 mm 0 W/m2
03:24 1.9 °C 1.2 °C 979.7 hPa NW 4.7 km/h 6.4 km/h 95% 0.2 mm 0 W/m2
03:29 1.9 °C 1.2 °C 979.7 hPa West 1.4 km/h 12.9 km/h 95% 0.2 mm 0 W/m2
03:34 2 °C 1.3 °C 980.0 hPa West 9.7 km/h 14.5 km/h 95% 0.2 mm 0 W/m2
03:39 2 °C 1.3 °C 980.4 hPa NW 11.1 km/h 12.9 km/h 95% 0.0 mm 0 W/m2
03:44 2 °C 1.3 °C 980.4 hPa NW 4.7 km/h 14.5 km/h 95% 0.0 mm 0 W/m2
03:49 2 °C 1.3 °C 980.4 hPa WNW 1.4 km/h 11.3 km/h 95% 0.0 mm 0 W/m2
03:54 2.1 °C 1.4 °C 980.4 hPa West 3.2 km/h 11.3 km/h 95% 0.0 mm 0 W/m2
03:59 2 °C 1.3 °C 980.4 hPa SW 1.4 km/h 12.9 km/h 95% 0.0 mm 0 W/m2
04:04 2 °C 1.3 °C 980.7 hPa West 9.7 km/h 14.5 km/h 95% 0.0 mm 0 W/m2
04:09 2 °C 1.3 °C 980.7 hPa West 1.4 km/h 11.3 km/h 95% 0.0 mm 0 W/m2
04:14 2.1 °C 1.4 °C 981.0 hPa West 3.2 km/h 4.8 km/h 95% 0.0 mm 0 W/m2
04:19 2.1 °C 1.4 °C 981.0 hPa WNW 1.4 km/h 9.7 km/h 95% 0.0 mm 0 W/m2
04:24 2.1 °C 1.4 °C 981.0 hPa NW 6.4 km/h 8 km/h 95% 0.0 mm 0 W/m2
04:29 2 °C 1.3 °C 981.0 hPa WNW 1.4 km/h 3.2 km/h 95% 0.0 mm 0 W/m2
04:34 2.1 °C 1.4 °C 981.0 hPa West 1.4 km/h 4.8 km/h 95% 0.0 mm 0 W/m2
04:39 2.1 °C 1.4 °C 981.4 hPa WNW 3.2 km/h 6.4 km/h 95% 0.0 mm 0 W/m2
04:44 2.1 °C 1.4 °C 981.4 hPa West 4.7 km/h 12.9 km/h 95% 0.2 mm 0 W/m2
04:49 2.1 °C 1.4 °C 981.4 hPa NW 4.7 km/h 6.4 km/h 95% 0.2 mm 0 W/m2
04:54 2.1 °C 1.4 °C 981.7 hPa NNW 1.4 km/h 8 km/h 95% 0.2 mm 0 W/m2
04:59 2.1 °C 1.4 °C 982.0 hPa WSW 16.3 km/h 16.1 km/h 95% 0.2 mm 0 W/m2
05:04 2.2 °C 1.5 °C 982.0 hPa NW 3.2 km/h 9.7 km/h 95% 0.2 mm 0 W/m2
05:09 2.2 °C 1.5 °C 982.0 hPa West 1.4 km/h 12.9 km/h 95% 0.2 mm 0 W/m2
05:14 2.2 °C 1.5 °C 982.4 hPa West 4.7 km/h 14.5 km/h 95% 0.2 mm 0 W/m2
05:19 2.3 °C 1.6 °C 982.4 hPa West 11.1 km/h 16.1 km/h 95% 0.2 mm 0 W/m2
05:24 2.3 °C 1.6 °C 982.4 hPa WSW 4.7 km/h 9.7 km/h 95% 0.2 mm 0 W/m2
05:29 2.3 °C 1.6 °C 982.7 hPa WNW 1.4 km/h 6.4 km/h 95% 0.2 mm 0 W/m2
05:34 2.3 °C 1.6 °C 982.7 hPa WNW 11.1 km/h 14.5 km/h 95% 0.2 mm 0 W/m2
05:39 2.3 °C 1.6 °C 982.7 hPa West 4.7 km/h 12.9 km/h 95% 0.2 mm 0 W/m2
05:44 2.3 °C 1.6 °C 983.1 hPa West 4.7 km/h 12.9 km/h 95% 0.0 mm 0 W/m2
05:49 2.2 °C 1.5 °C 983.1 hPa WSW 4.7 km/h 11.3 km/h 95% 0.0 mm 0 W/m2
05:54 2.2 °C 1.5 °C 983.1 hPa WNW 1.4 km/h 9.7 km/h 95% 0.0 mm 0 W/m2
05:59 2.2 °C 1.5 °C 983.4 hPa West 6.4 km/h 11.3 km/h 95% 0.0 mm 0 W/m2
06:04 2.2 °C 1.5 °C 983.4 hPa WSW 4.7 km/h 4.8 km/h 95% 0.0 mm 0 W/m2
06:09 2.2 °C 1.5 °C 983.8 hPa West 3.2 km/h 11.3 km/h 95% 0.0 mm 0 W/m2
06:14 2.1 °C 1.4 °C 983.8 hPa WSW 3.2 km/h 12.9 km/h 95% 0.2 mm 0 W/m2
06:19 2.1 °C 1.4 °C 984.1 hPa West 4.7 km/h 11.3 km/h 95% 0.2 mm 0 W/m2
06:24 2.1 °C 1.4 °C 984.1 hPa WNW 3.2 km/h 9.7 km/h 95% 0.2 mm 0 W/m2
06:29 2.1 °C 1.4 °C 984.4 hPa WNW 4.7 km/h 9.7 km/h 95% 0.5 mm 0 W/m2
06:34 2.1 °C 1.4 °C 984.4 hPa WNW 4.7 km/h 6.4 km/h 95% 0.5 mm 0 W/m2
06:39 2.1 °C 1.4 °C 984.4 hPa WNW 3.2 km/h 6.4 km/h 95% 0.5 mm 0 W/m2
06:44 2.2 °C 1.5 °C 984.8 hPa WNW 9.7 km/h 9.7 km/h 95% 0.5 mm 0 W/m2
06:49 2.2 °C 1.5 °C 984.8 hPa WNW 7.9 km/h 12.9 km/h 95% 0.5 mm 0 W/m2
06:54 2.2 °C 1.5 °C 984.8 hPa West 9.7 km/h 11.3 km/h 95% 0.5 mm 0 W/m2
06:59 2.3 °C 1.6 °C 985.1 hPa WNW 13 km/h 12.9 km/h 95% 0.5 mm 0 W/m2
07:04 2.3 °C 1.6 °C 985.1 hPa NNW 1.4 km/h 9.7 km/h 95% 0.5 mm 0 W/m2
07:09 2.4 °C 1.7 °C 985.4 hPa WNW 11.1 km/h 14.5 km/h 95% 0.5 mm 0 W/m2
07:14 2.5 °C 1.8 °C 985.4 hPa WNW 6.4 km/h 6.4 km/h 95% 0.5 mm 0 W/m2
07:19 2.5 °C 1.8 °C 985.4 hPa WNW 6.4 km/h 12.9 km/h 95% 0.5 mm 0 W/m2
07:24 2.6 °C 1.9 °C 985.8 hPa WSW 4.7 km/h 6.4 km/h 95% 0.5 mm 0 W/m2
07:29 2.6 °C 1.9 °C 985.8 hPa NW 16.3 km/h 16.1 km/h 95% 0.2 mm 0 W/m2
07:34 2.7 °C 2 °C 986.1 hPa NW 6.4 km/h 12.9 km/h 95% 0.2 mm 0 W/m2
07:39 2.7 °C 2 °C 986.1 hPa West 9.7 km/h 16.1 km/h 95% 0.2 mm 0 W/m2
07:44 2.8 °C 1.9 °C 986.5 hPa West 4.7 km/h 14.5 km/h 94% 0.2 mm 0 W/m2
07:49 2.8 °C 1.9 °C 986.5 hPa West 3.2 km/h 12.9 km/h 94% 0.0 mm 0 W/m2
07:54 2.8 °C 2.1 °C 986.5 hPa West 9.7 km/h 9.7 km/h 95% 0.0 mm 0 W/m2
07:59 2.8 °C 2.1 °C 986.8 hPa WNW 6.4 km/h 9.7 km/h 95% 0.0 mm 0 W/m2
08:04 2.8 °C 1.9 °C 987.1 hPa West 13 km/h 19.3 km/h 94% 0.0 mm 0 W/m2
08:09 2.8 °C 2.1 °C 987.1 hPa NW 3.2 km/h 14.5 km/h 95% 0.0 mm 0 W/m2
08:14 2.9 °C 2.2 °C 987.1 hPa West 3.2 km/h 19.3 km/h 95% 0.0 mm 0 W/m2
08:19 2.9 °C 2.2 °C 987.1 hPa West 6.4 km/h 6.4 km/h 95% 0.0 mm 0 W/m2
08:24 2.8 °C 1.9 °C 987.5 hPa WNW 3.2 km/h 9.7 km/h 94% 0.0 mm 0 W/m2
08:29 2.8 °C 1.9 °C 987.5 hPa WSW 6.4 km/h 11.3 km/h 94% 0.0 mm 0 W/m2
08:34 2.8 °C 1.9 °C 987.8 hPa WNW 6.4 km/h 14.5 km/h 94% 0.0 mm 0 W/m2
08:39 2.8 °C 1.9 °C 987.8 hPa West 4.7 km/h 11.3 km/h 94% 0.0 mm 0 W/m2
08:44 2.8 °C 2.1 °C 988.1 hPa NW 4.7 km/h 14.5 km/h 95% 0.0 mm 0 W/m2
08:49 2.8 °C 1.9 °C 988.1 hPa NW 1.4 km/h 11.3 km/h 94% 0.0 mm 0 W/m2
08:54 2.9 °C 2 °C 988.1 hPa Calm   6.4 km/h 94% 0.0 mm 0 W/m2
09:00 2.9 °C 2 °C 988.5 hPa Calm   3.2 km/h 94% 0.0 mm 0 W/m2
09:05 2.9 °C 2 °C 988.5 hPa SW 1.4 km/h 12.9 km/h 94% 0.0 mm 0 W/m2
09:10 2.9 °C 2 °C 988.5 hPa Calm   3.2 km/h 94% 0.0 mm 7 W/m2
09:15 2.9 °C 2 °C 988.5 hPa Calm   12.9 km/h 94% 0.0 mm 14 W/m2
09:20 2.9 °C 2 °C 988.8 hPa West 3.2 km/h 11.3 km/h 94% 0.0 mm 12 W/m2
09:25 2.9 °C 2 °C 988.8 hPa SW 3.2 km/h 4.8 km/h 94% 0.0 mm 12 W/m2
09:30 2.9 °C 2 °C 988.8 hPa SW 1.4 km/h 11.3 km/h 94% 0.0 mm 14 W/m2
09:35 2.8 °C 1.9 °C 988.8 hPa West 9.7 km/h 16.1 km/h 94% 0.0 mm 19 W/m2
09:40 2.8 °C 1.9 °C 989.2 hPa NNW 3.2 km/h 4.8 km/h 94% 0.0 mm 25 W/m2
09:45 2.8 °C 1.9 °C 989.2 hPa Calm   12.9 km/h 94% 0.0 mm 26 W/m2
09:50 2.8 °C 2.1 °C 989.2 hPa Calm   8 km/h 95% 0.0 mm 30 W/m2
09:55 2.9 °C 2.2 °C 989.5 hPa Calm   6.4 km/h 95% 0.0 mm 28 W/m2
10:00 2.9 °C 2.2 °C 989.5 hPa Calm   3.2 km/h 95% 0.0 mm 32 W/m2
10:05 2.9 °C 2 °C 989.5 hPa NW 3.2 km/h 3.2 km/h 94% 0.0 mm 40 W/m2
10:10 3 °C 2.1 °C 989.5 hPa WNW 4.7 km/h 14.5 km/h 94% 0.0 mm 54 W/m2
10:15 3.1 °C 2.2 °C 989.5 hPa Calm   4.8 km/h 94% 0.0 mm 67 W/m2
10:20 3.1 °C 2.2 °C 989.8 hPa WSW 1.4 km/h 14.5 km/h 94% 0.0 mm 46 W/m2
10:25 3.2 °C 2.3 °C 989.8 hPa WNW 1.4 km/h 4.8 km/h 94% 0.0 mm 26 W/m2
10:30 3.2 °C 2.3 °C 989.8 hPa North 3.2 km/h 11.3 km/h 94% 0.0 mm 39 W/m2
10:35 3.2 °C 2.3 °C 990.2 hPa WNW 11.1 km/h 11.3 km/h 94% 0.0 mm 54 W/m2
10:40 3.2 °C 2.3 °C 990.2 hPa NW 4.7 km/h 12.9 km/h 94% 0.0 mm 127 W/m2
10:45 3.3 °C 2.4 °C 990.2 hPa West 4.7 km/h 16.1 km/h 94% 0.0 mm 107 W/m2
10:50 3.3 °C 2.4 °C 990.2 hPa Calm   6.4 km/h 94% 0.0 mm 91 W/m2
10:55 3.4 °C 2.4 °C 990.2 hPa WNW 4.7 km/h 16.1 km/h 93% 0.0 mm 67 W/m2
11:00 3.4 °C 2.4 °C 990.2 hPa South 6.4 km/h 6.4 km/h 93% 0.0 mm 111 W/m2
11:05 3.5 °C 2.5 °C 990.5 hPa SSE 3.2 km/h 3.2 km/h 93% 0.0 mm 148 W/m2
11:10 3.6 °C 2.6 °C 990.5 hPa SSE 4.7 km/h 6.4 km/h 93% 0.0 mm 107 W/m2
11:15 3.7 °C 2.7 °C 990.9 hPa West 1.4 km/h 6.4 km/h 93% 0.0 mm 81 W/m2
11:20 3.7 °C 2.5 °C 990.9 hPa WNW 6.4 km/h 6.4 km/h 92% 0.0 mm 90 W/m2
11:25 3.7 °C 2.5 °C 990.9 hPa SE 3.2 km/h 8 km/h 92% 0.0 mm 107 W/m2
11:30 3.7 °C 2.5 °C 990.9 hPa ENE 4.7 km/h 4.8 km/h 92% 0.0 mm 127 W/m2
11:35 3.8 °C 2.6 °C 991.2 hPa WNW 1.4 km/h 19.3 km/h 92% 0.0 mm 151 W/m2
11:40 3.8 °C 2.5 °C 991.2 hPa NW 6.4 km/h 17.7 km/h 91% 0.0 mm 120 W/m2
11:45 3.8 °C 2.5 °C 990.9 hPa NNE 4.7 km/h 19.3 km/h 91% 0.0 mm 130 W/m2
11:50 3.8 °C 2.5 °C 990.9 hPa Calm   9.7 km/h 91% 0.0 mm 84 W/m2
11:55 3.8 °C 2.5 °C 991.2 hPa NW 7.9 km/h 12.9 km/h 91% 0.0 mm 67 W/m2
12:00 3.7 °C 2.2 °C 991.2 hPa NNW 4.7 km/h 4.8 km/h 90% 0.0 mm 113 W/m2
12:05 3.7 °C 2.2 °C 991.2 hPa WSW 4.7 km/h 17.7 km/h 90% 0.0 mm 118 W/m2
12:10 3.7 °C 2.2 °C 991.2 hPa SW 4.7 km/h 4.8 km/h 90% 0.0 mm 120 W/m2
12:15 3.7 °C 2.4 °C 991.2 hPa NW 7.9 km/h 17.7 km/h 91% 0.0 mm 77 W/m2
12:20 3.7 °C 2.4 °C 991.5 hPa West 3.2 km/h 11.3 km/h 91% 0.0 mm 56 W/m2
12:25 3.7 °C 2.4 °C 991.2 hPa West 1.4 km/h 9.7 km/h 91% 0.0 mm 79 W/m2
12:30 3.7 °C 2.4 °C 991.2 hPa ESE 1.4 km/h 6.4 km/h 91% 0.0 mm 69 W/m2
12:35 3.8 °C 2.5 °C 991.2 hPa SW 14.5 km/h 14.5 km/h 91% 0.0 mm 60 W/m2
12:40 3.8 °C 2.5 °C 991.2 hPa Calm   8 km/h 91% 0.0 mm 54 W/m2
12:45 3.8 °C 2.5 °C 991.2 hPa NNW 4.7 km/h 11.3 km/h 91% 0.0 mm 67 W/m2
12:50 3.9 °C 2.6 °C 991.2 hPa West 6.4 km/h 6.4 km/h 91% 0.0 mm 98 W/m2
12:55 3.9 °C 2.7 °C 991.2 hPa NW 3.2 km/h 3.2 km/h 92% 0.0 mm 116 W/m2
13:00 4 °C 2.8 °C 991.2 hPa WNW 4.7 km/h 16.1 km/h 92% 0.0 mm 70 W/m2
13:05 4.1 °C 2.9 °C 991.2 hPa West 3.2 km/h 6.4 km/h 92% 0.0 mm 72 W/m2
13:10 4.1 °C 2.9 °C 991.2 hPa WNW 3.2 km/h 16.1 km/h 92% 0.0 mm 60 W/m2
13:15 4.1 °C 2.9 °C 991.2 hPa NW 3.2 km/h 6.4 km/h 92% 0.0 mm 33 W/m2
13:20 4.2 °C 3 °C 991.5 hPa WNW 3.2 km/h 6.4 km/h 92% 0.0 mm 40 W/m2
13:25 4.2 °C 2.9 °C 991.5 hPa NW 3.2 km/h 9.7 km/h 91% 0.0 mm 56 W/m2
13:30 4.2 °C 2.9 °C 991.5 hPa NW 1.4 km/h 6.4 km/h 91% 0.0 mm 33 W/m2
13:35 4.2 °C 2.9 °C 991.5 hPa North 1.4 km/h 8 km/h 91% 0.0 mm 39 W/m2
13:40 4.3 °C 3 °C 991.5 hPa East 3.2 km/h 4.8 km/h 91% 0.0 mm 46 W/m2
13:45 4.3 °C 3 °C 991.5 hPa ESE 1.4 km/h 11.3 km/h 91% 0.0 mm 49 W/m2
13:50 4.4 °C 3.1 °C 991.5 hPa ENE 3.2 km/h 4.8 km/h 91% 0.0 mm 86 W/m2
13:55 4.4 °C 3.1 °C 991.5 hPa NW 3.2 km/h 9.7 km/h 91% 0.0 mm 72 W/m2
14:05 4.6 °C 3.1 °C 991.5 hPa NW 1.4 km/h 3.2 km/h 90% 0.0 mm 65 W/m2
14:11 4.6 °C 3.1 °C 991.5 hPa SW 4.7 km/h 9.7 km/h 90% 0.0 mm 46 W/m2
14:16 4.6 °C 3.1 °C 991.9 hPa NNW 3.2 km/h 6.4 km/h 90% 0.0 mm 49 W/m2
14:21 4.6 °C 3.1 °C 991.9 hPa Calm   9.7 km/h 90% 0.0 mm 39 W/m2
14:26 4.6 °C 3.1 °C 991.9 hPa WNW 1.4 km/h 9.7 km/h 90% 0.0 mm 49 W/m2
14:31 4.6 °C 3.1 °C 991.9 hPa WSW 1.4 km/h 4.8 km/h 90% 0.0 mm 32 W/m2
14:36 4.6 °C 3.1 °C 992.2 hPa WNW 1.4 km/h 6.4 km/h 90% 0.0 mm 54 W/m2
14:41 4.5 °C 3 °C 992.2 hPa West 9.7 km/h 14.5 km/h 90% 0.0 mm 74 W/m2
14:46 4.4 °C 2.9 °C 992.2 hPa WNW 7.9 km/h 9.7 km/h 90% 0.0 mm 74 W/m2
14:51 4.4 °C 2.9 °C 992.2 hPa Calm   14.5 km/h 90% 0.0 mm 79 W/m2
14:56 4.4 °C 2.9 °C 992.2 hPa West 3.2 km/h 4.8 km/h 90% 0.0 mm 74 W/m2
15:01 4.4 °C 2.9 °C 992.2 hPa West 1.4 km/h 6.4 km/h 90% 0.0 mm 69 W/m2
15:06 4.3 °C 2.8 °C 992.2 hPa NNW 1.4 km/h 1.6 km/h 90% 0.0 mm 63 W/m2
15:11 4.3 °C 2.8 °C 992.5 hPa ENE 1.4 km/h 4.8 km/h 90% 0.0 mm 56 W/m2
15:16 4.3 °C 2.8 °C 992.5 hPa Calm   6.4 km/h 90% 0.0 mm 39 W/m2
15:21 4.3 °C 2.8 °C 992.5 hPa North 1.4 km/h 3.2 km/h 90% 0.0 mm 32 W/m2
15:26 4.3 °C 2.8 °C 992.5 hPa NW 1.4 km/h 4.8 km/h 90% 0.0 mm 33 W/m2
15:31 4.3 °C 2.8 °C 992.5 hPa NW 1.4 km/h 1.6 km/h 90% 0.0 mm 42 W/m2
15:36 4.3 °C 2.8 °C 992.5 hPa West 1.4 km/h 3.2 km/h 90% 0.0 mm 26 W/m2
15:41 4.3 °C 2.8 °C 992.9 hPa WNW 1.4 km/h 3.2 km/h 90% 0.0 mm 26 W/m2
15:46 4.3 °C 2.8 °C 992.9 hPa Calm   3.2 km/h 90% 0.0 mm 26 W/m2
15:51 4.3 °C 2.8 °C 993.2 hPa Calm   3.2 km/h 90% 0.0 mm 19 W/m2
15:56 4.3 °C 2.8 °C 993.2 hPa North 1.4 km/h 3.2 km/h 90% 0.0 mm 21 W/m2
16:01 4.3 °C 2.8 °C 993.2 hPa NW 3.2 km/h 3.2 km/h 90% 0.0 mm 21 W/m2
16:06 4.3 °C 2.8 °C 993.2 hPa ENE 1.4 km/h 6.4 km/h 90% 0.0 mm 18 W/m2
16:11 4.3 °C 2.8 °C 993.2 hPa North 3.2 km/h 3.2 km/h 90% 0.0 mm 12 W/m2
16:16 4.3 °C 2.8 °C 993.2 hPa NW 1.4 km/h 6.4 km/h 90% 0.0 mm 11 W/m2
16:21 4.2 °C 2.7 °C 993.2 hPa NE 1.4 km/h 4.8 km/h 90% 0.0 mm 7 W/m2
16:26 4.2 °C 2.7 °C 993.6 hPa Calm   4.8 km/h 90% 0.0 mm 5 W/m2
16:31 4.2 °C 2.7 °C 993.6 hPa Calm   3.2 km/h 90% 0.0 mm 0 W/m2
16:36 4.2 °C 2.7 °C 993.6 hPa Calm   1.6 km/h 90% 0.0 mm 0 W/m2
16:41 4.2 °C 2.7 °C 993.6 hPa Calm   4.8 km/h 90% 0.0 mm 0 W/m2
16:46 4.2 °C 2.7 °C 993.6 hPa Calm   1.6 km/h 90% 0.0 mm 0 W/m2
16:51 4.1 °C 2.8 °C 993.6 hPa SW 1.4 km/h 3.2 km/h 91% 0.0 mm 0 W/m2
16:56 4.1 °C 2.8 °C 993.6 hPa Calm   1.6 km/h 91% 0.2 mm 0 W/m2
17:02 4.1 °C 2.8 °C 993.6 hPa SW 3.2 km/h 3.2 km/h 91% 0.5 mm 0 W/m2
17:07 4 °C 2.8 °C 993.6 hPa SW 1.4 km/h 1.6 km/h 92% 0.5 mm 0 W/m2
17:12 3.9 °C 2.7 °C 993.9 hPa West 3.2 km/h 4.8 km/h 92% 0.5 mm 0 W/m2
17:17 3.8 °C 2.6 °C 993.9 hPa NNW 1.4 km/h 3.2 km/h 92% 0.5 mm 0 W/m2
17:22 3.7 °C 2.7 °C 993.9 hPa NW 1.4 km/h 4.8 km/h 93% 0.5 mm 0 W/m2
17:27 3.6 °C 2.6 °C 993.9 hPa NW 3.2 km/h 4.8 km/h 93% 0.5 mm 0 W/m2
17:32 3.4 °C 2.4 °C 994.2 hPa West 4.7 km/h 14.5 km/h 93% 1.0 mm 0 W/m2
17:37 2.9 °C 1.7 °C 994.2 hPa West 1.4 km/h 4.8 km/h 92% 1.3 mm 0 W/m2
17:42 2.7 °C 1.7 °C 994.2 hPa West 4.7 km/h 12.9 km/h 93% 1.5 mm 0 W/m2
17:47 2.6 °C 1.6 °C 994.2 hPa West 1.4 km/h 3.2 km/h 93% 1.8 mm 0 W/m2
17:52 2.6 °C 1.7 °C 994.2 hPa Calm   3.2 km/h 94% 2.0 mm 0 W/m2
17:57 2.5 °C 1.6 °C 994.2 hPa WSW 1.4 km/h 3.2 km/h 94% 1.8 mm 0 W/m2
18:02 2.5 °C 1.6 °C 994.2 hPa Calm   1.6 km/h 94% 1.5 mm 0 W/m2
18:07 2.5 °C 1.6 °C 994.2 hPa Calm   1.6 km/h 94% 1.5 mm 0 W/m2
18:12 2.6 °C 1.7 °C 994.2 hPa Calm   1.6 km/h 94% 1.5 mm 0 W/m2
18:17 2.6 °C 1.7 °C 994.2 hPa Calm     94% 1.5 mm 0 W/m2
18:22 2.6 °C 1.7 °C 994.2 hPa Calm   1.6 km/h 94% 1.5 mm 0 W/m2
18:27 2.6 °C 1.9 °C 994.2 hPa Calm   1.6 km/h 95% 1.5 mm 0 W/m2
18:32 2.6 °C 1.9 °C 994.2 hPa Calm     95% 1.0 mm 0 W/m2
18:37 2.7 °C 2 °C 994.6 hPa Calm   1.6 km/h 95% 0.5 mm 0 W/m2
18:42 2.7 °C 2 °C 994.6 hPa South 1.4 km/h 1.6 km/h 95% 0.5 mm 0 W/m2
18:47 2.7 °C 2 °C 994.6 hPa Calm     95% 0.2 mm 0 W/m2
18:52 2.8 °C 2.1 °C 994.6 hPa Calm     95% 0.0 mm 0 W/m2
18:57 2.8 °C 2.1 °C 994.6 hPa Calm     95% 0.0 mm 0 W/m2
19:02 2.8 °C 2.1 °C 994.6 hPa Calm     95% 0.0 mm 0 W/m2
19:07 2.8 °C 2.1 °C 994.9 hPa Calm     95% 0.0 mm 0 W/m2
19:12 2.7 °C 2 °C 994.9 hPa Calm     95% 0.0 mm 0 W/m2
19:17 2.7 °C 2 °C 994.9 hPa Calm     95% 0.0 mm 0 W/m2
19:22 2.7 °C 2 °C 994.9 hPa Calm     95% 0.0 mm 0 W/m2
19:27 2.7 °C 2 °C 994.9 hPa Calm     95% 0.0 mm 0 W/m2
19:32 2.8 °C 2.1 °C 995.3 hPa Calm     95% 0.0 mm 0 W/m2
19:37 2.8 °C 2.1 °C 995.3 hPa Calm     95% 0.0 mm 0 W/m2
19:42 2.8 °C 2.2 °C 995.3 hPa Calm     96% 0.0 mm 0 W/m2
19:47 2.8 °C 2.2 °C 995.3 hPa Calm     96% 0.0 mm 0 W/m2
19:52 2.8 °C 2.2 °C 995.3 hPa Calm     96% 0.0 mm 0 W/m2
19:57 2.8 °C 2.2 °C 995.3 hPa Calm     96% 0.0 mm 0 W/m2
20:02 2.8 °C 2.2 °C 995.3 hPa Calm     96% 0.0 mm 0 W/m2
20:07 2.8 °C 2.2 °C 995.3 hPa Calm     96% 0.0 mm 0 W/m2
20:12 2.8 °C 2.2 °C 995.3 hPa Calm     96% 0.0 mm 0 W/m2
20:17 2.8 °C 2.2 °C 995.6 hPa Calm     96% 0.0 mm 0 W/m2
20:22 2.8 °C 2.2 °C 995.6 hPa Calm     96% 0.0 mm 0 W/m2
20:27 2.8 °C 2.2 °C 995.6 hPa South 1.4 km/h 1.6 km/h 96% 0.0 mm 0 W/m2
20:32 2.8 °C 2.2 °C 995.3 hPa Calm   3.2 km/h 96% 0.0 mm 0 W/m2
20:37 2.8 °C 2.2 °C 995.6 hPa Calm   1.6 km/h 96% 0.0 mm 0 W/m2
20:42 2.7 °C 2.1 °C 995.6 hPa NW 1.4 km/h 3.2 km/h 96% 0.0 mm 0 W/m2
20:47 2.7 °C 2.1 °C 995.6 hPa Calm     96% 0.0 mm 0 W/m2
20:52 2.7 °C 2.1 °C 995.6 hPa Calm   1.6 km/h 96% 0.0 mm 0 W/m2
20:57 2.7 °C 2.1 °C 995.6 hPa Calm     96% 0.0 mm 0 W/m2
21:02 2.7 °C 2.1 °C 995.6 hPa Calm     96% 0.0 mm 0 W/m2
21:07 2.7 °C 2.1 °C 995.6 hPa Calm     96% 0.0 mm 0 W/m2
21:12 2.6 °C 2 °C 995.6 hPa Calm     96% 0.0 mm 0 W/m2
21:17 2.6 °C 2 °C 995.9 hPa Calm   1.6 km/h 96% 0.0 mm 0 W/m2
21:22 2.6 °C 2 °C 995.6 hPa Calm     96% 0.0 mm 0 W/m2
21:27 2.6 °C 2 °C 995.9 hPa Calm     96% 0.0 mm 0 W/m2
21:32 2.6 °C 2 °C 995.9 hPa NW 1.4 km/h 1.6 km/h 96% 0.0 mm 0 W/m2
21:37 2.6 °C 2 °C 995.9 hPa Calm     96% 0.0 mm 0 W/m2
21:42 2.6 °C 2 °C 995.9 hPa Calm   1.6 km/h 96% 0.0 mm 0 W/m2
21:47 2.7 °C 2.1 °C 995.9 hPa Calm   1.6 km/h 96% 0.0 mm 0 W/m2
21:52 2.7 °C 2.1 °C 995.9 hPa NW 1.4 km/h 1.6 km/h 96% 0.0 mm 0 W/m2
21:58 2.7 °C 2.3 °C 995.9 hPa Calm     97% 0.0 mm 0 W/m2
22:03 2.8 °C 2.4 °C 995.9 hPa Calm   1.6 km/h 97% 0.0 mm 0 W/m2
22:08 2.8 °C 2.4 °C 995.9 hPa Calm     97% 0.0 mm 0 W/m2
22:13 2.8 °C 2.4 °C 995.9 hPa Calm   1.6 km/h 97% 0.0 mm 0 W/m2
22:18 2.8 °C 2.4 °C 995.9 hPa NW 3.2 km/h 3.2 km/h 97% 0.0 mm 0 W/m2
22:23 2.8 °C 2.4 °C 995.9 hPa Calm     97% 0.0 mm 0 W/m2
22:28 2.8 °C 2.4 °C 995.9 hPa Calm   1.6 km/h 97% 0.0 mm 0 W/m2
22:33 2.8 °C 2.4 °C 995.9 hPa Calm     97% 0.0 mm 0 W/m2
22:38 2.8 °C 2.4 °C 995.9 hPa Calm   1.6 km/h 97% 0.2 mm 0 W/m2
22:43 2.8 °C 2.4 °C 996.3 hPa Calm   1.6 km/h 97% 0.2 mm 0 W/m2
22:48 2.9 °C 2.5 °C 996.3 hPa Calm     97% 0.2 mm 0 W/m2
22:53 2.9 °C 2.5 °C 996.3 hPa NW 3.2 km/h 3.2 km/h 97% 0.2 mm 0 W/m2
22:58 2.9 °C 2.5 °C 996.3 hPa NNE 1.4 km/h 1.6 km/h 97% 0.2 mm 0 W/m2
23:03 2.9 °C 2.5 °C 996.3 hPa NE 1.4 km/h 3.2 km/h 97% 0.5 mm 0 W/m2
23:08 3 °C 2.6 °C 996.3 hPa Calm   3.2 km/h 97% 0.5 mm 0 W/m2
23:13 3.1 °C 2.7 °C 996.3 hPa Calm   1.6 km/h 97% 0.5 mm 0 W/m2
23:18 3.2 °C 2.8 °C 996.3 hPa NE 3.2 km/h 4.8 km/h 97% 0.5 mm 0 W/m2
23:23 3.3 °C 2.9 °C 996.3 hPa Calm   3.2 km/h 97% 0.5 mm 0 W/m2
23:28 3.3 °C 2.9 °C 996.6 hPa Calm   3.2 km/h 97% 0.5 mm 0 W/m2
23:33 3.3 °C 2.9 °C 996.3 hPa Calm     97% 0.8 mm 0 W/m2
23:38 3.4 °C 3 °C 996.3 hPa Calm   1.6 km/h 97% 0.5 mm 0 W/m2
23:43 3.4 °C 3 °C 996.6 hPa Calm   1.6 km/h 97% 0.5 mm 0 W/m2
23:48 3.4 °C 3 °C 996.6 hPa NE 1.4 km/h 3.2 km/h 97% 0.8 mm 0 W/m2
23:53 3.4 °C 3 °C 996.6 hPa North 4.7 km/h 4.8 km/h 97% 0.8 mm 0 W/m2
23:58 3.4 °C 3 °C 996.6 hPa Calm   3.2 km/h 97% 1.0 mm 0 W/m2
Juneau County Weather
Compliments of Weather Underground - 4 mb